#timestamp,LO_Frequency,Hit,StdDev 
1700838015.1,286046999.3,N
1700838035.8,286047000.8,N
1700838055.7,286047000.5,N
1700838075.5,286046998.1,N
1700838095.4,286047001.0,N
1700838115.2,286047000.8,N
1700838135.0,286047000.5,N
1700838135.9,286047000.5,N
1700838155.8,286047000.3,N
1700838175.6,286046998.7,N
1700838195.4,286046998.7,N
1700838215.3,286047000.9,N
1700838235.1,286046998.6,N
1700838255.9,286046998.3,N
1700838275.7,286047000.3,N
1700838295.5,286047000.6,N
1700838315.4,286046998.5,N
1700838335.2,286047000.5,N
1700838355.0,286047002.6,N
1700838356.0,286047002.6,N
1700838375.8,286047002.6,N
1700838395.6,286046999.9,N
1700838415.5,286046999.8,N
1700838435.3,286047002.3,N
1700838455.1,286047002.2,N
1700838475.9,286047001.5,N
1700838495.7,286047004.0,N
1700838515.6,286047002.6,N
1700838535.4,286047000.6,N
1700838555.2,286046998.2,N
1700838575.1,286046998.6,N
1700838576.0,286046998.6,N
1700838595.8,286047000.4,N
1700838615.6,286046998.3,N
1700838635.5,286046998.3,N
1700838655.3,286046999.3,N
1700838675.2,286046998.3,N
1700838695.9,286046998.8,N
1700838715.7,286047001.2,N
1700838735.6,286047001.0,N
1700838755.4,286047001.2,N
1700838805.3,286046999.9,E
1700838815.2,286047000.6,N
1700838835.0,286047000.1,P
1700838835.9,286047000.1,N
1700838855.8,286047000.9,Y
1700838875.6,286047000.0,P
1700838895.5,286047001.0,P
1700838915.3,286046999.9,N
1700838935.1,286047001.2,N
1700838955.9,286047000.1,N
1700838975.7,286046999.8,N
1700838995.5,286047000.2,N
1700839015.4,286046998.5,Y
1700839035.2,286046998.7,P
1700839055.1,286046999.0,N
1700839056.0,286046999.0,N
1700839075.8,286047002.8,Y
1700839095.6,286047002.7,P
1700839115.5,286047001.2,N
1700839135.3,286046998.7,N
1700839155.2,286047001.1,N
1700839175.9,286047000.2,N
1700839195.7,286046998.8,N
1700839215.6,286046999.0,N
1700839235.4,286046999.0,N
1700839255.2,286047000.3,N
1700839275.1,286047000.0,N
1700839276.0,286047000.0,N
1700839295.8,286047002.8,N
1700839315.7,286047001.9,N
1700839335.5,286047002.8,N
1700839355.3,286047002.8,N
1700839375.2,286047002.7,N
1700839395.0,286046998.2,N
1700839395.9,286046998.2,N
1700839415.7,286046998.2,N
1700839435.6,286046998.5,N
1700839455.4,286046998.6,N
1700839475.3,286046999.3,N
1700839495.1,286046999.3,N
1700839496.0,286046999.3,N
1700839515.8,286046998.5,N
1700839535.7,286047000.7,N
1700839555.5,286047000.8,N
1700839575.3,286046999.7,N
1700839595.2,286047001.1,N
1700839615.0,286047001.0,N
1700839615.9,286047001.0,N
1700839635.8,286047000.3,N
1700839655.6,286047000.4,N
1700839675.4,286047000.3,N
1700839695.3,286047002.3,N
1700839715.1,286047002.7,N
1700839735.9,286046999.8,N
1700839755.7,286047003.9,N
1700839775.5,286047001.5,N
1700839795.4,286047002.6,N
1700839815.2,286047002.1,N
1700839835.0,286047004.0,N
1700839835.9,286047004.0,N
1700839855.8,286047003.7,N
1700839875.6,286047001.7,N
1700839895.5,286047001.8,N
1700839915.3,286047003.9,N
1700839935.1,286047001.3,N
1700839955.9,286047001.9,N
1700839975.7,286047001.7,N
1700839995.5,286047002.6,N
1700840015.4,286047002.3,N
1700840035.2,286047001.0,N
1700840055.1,286047001.0,N
1700840056.0,286047001.0,N
1700840075.8,286047002.2,N
1700840095.6,286047000.3,N
1700840115.5,286047002.0,N
1700840135.3,286047002.6,N
1700840155.1,286046999.8,N
1700840175.9,286047002.5,N
1700840195.7,286046999.9,N
1700840215.6,286047000.3,N
1700840235.4,286047001.5,N
1700840255.2,286047003.8,Y
1700840275.1,286047000.5,P
1700840276.0,286047000.5,N
1700840295.8,286047001.1,N
1700840315.7,286046998.6,N
1700840335.5,286047000.4,N
1700840355.3,286047000.0,N
1700840375.2,286047000.4,N
1700840395.9,286047002.8,Y
1700840415.7,286047000.1,P
1700840435.6,286047000.6,P
1700840455.4,286047001.1,P
1700840475.3,286046998.3,Y
1700840495.1,286046999.0,P
1700840496.0,286046999.0,N
1700840515.8,286046996.7,P
1700840535.7,286046998.4,N
1700840555.5,286046998.8,N
1700840575.3,286046997.0,N
1700840595.2,286046996.8,N
1700840615.0,286046997.2,N
1700840615.9,286046997.2,N
1700840635.8,286046998.7,N
1700840655.6,286046998.5,N
1700840675.4,286046999.6,N
1700840695.3,286047001.1,N
1700840715.1,286046999.4,N
1700840735.8,286046998.8,N
1700840755.7,286047000.9,N
1700840775.5,286046998.7,N
1700840795.4,286046999.0,N
1700840815.2,286046998.8,N
1700840835.0,286046998.2,N
1700840835.9,286046998.2,N
1700840855.8,286046998.6,N
1700840875.6,286046998.7,N
1700840895.4,286047001.1,N
1700840915.3,286046996.7,N
1700840935.1,286046999.1,N
1700840955.9,286046999.4,N
1700840975.7,286046998.3,N
1700840995.5,286046998.3,N
1700841015.4,286046998.2,N
1700841035.2,286046998.1,N
1700841055.0,286046996.9,N
1700841055.9,286046996.9,N
1700841075.8,286047000.7,N
1700841095.6,286047000.8,N
1700841115.5,286046998.2,N
1700841135.3,286046998.4,N
1700841155.1,286047000.8,N
1700841175.9,286047000.8,N
1700841195.7,286047002.0,N
1700841215.5,286047002.3,N
1700841235.4,286047002.3,N
1700841255.2,286047002.1,N
1700841275.1,286047000.1,N
1700841276.0,286047000.1,N
1700841295.8,286047002.5,N
1700841315.6,286047000.2,N
1700841335.5,286047000.6,N
1700841355.3,286046999.3,N
1700841375.1,286046996.8,N
1700841395.9,286046996.8,N
1700841415.7,286046997.7,N
1700841435.6,286046999.0,N
1700841455.4,286046998.4,N
1700841475.2,286046998.3,N
1700841495.1,286046998.9,N
1700841496.0,286046998.9,N
1700841515.8,286046998.8,N
1700841535.7,286046998.5,N
1700841555.5,286047000.8,N
1700841575.3,286046998.2,N
1700841595.2,286046999.0,N
